Mt. Pocono, PA

4:00 AM EST on December 06, 2019 (GMT -0500)
Pocono Mountains Municipal

Weather History for KMPO - October, 2019

Change the Weather History Date:

Monday, October 7, 2019

  Actual Average Record
Temperature  
Mean Temperature 55 °F 51 °F  
Max Temperature 61 °F 60 °F 82 °F (1946)
Min Temperature 49 °F 42 °F 23 °F (1904)
Degree Days  
Heating Degree Days 10 14  
Month to date heating degree days 75 93  
Since 1 July heating degree days 253 361  
Cooling Degree Days 0 0  
Month to date cooling degree days 5 0  
Year to date cooling degree days 348 313  
Growing Degree Days 5 (Base 50)    
Moisture  
Dew Point 58 °F    
Average Humidity 99    
Maximum Humidity 100    
Minimum Humidity 89    
Precipitation  
Precipitation 0.46 in 0.15 in 2.49 in (2005)
Month to date precipitation 1.28 1.12  
Year to date precipitation 37.50 37.46  
Sea Level Pressure  
Sea Level Pressure 30.15 in    
Wind  
Wind Speed 11 mph ()    
Max Wind Speed 20 mph    
Max Gust Speed 29 mph    
Visibility 8.3 miles    
Events Rain    
T = Trace of Precipitation, MM = Missing Value Source: Averaged Metar Reports

Daily Weather History Graph

Daily Weather History Graph

Search for Another Location

Airport or City:

Astronomy

Oct. 07, 2019 Rise Set
Actual Time 7:04 AM EDT 6:33 PM EDT
Civil Twilight 6:36 AM EDT 7:01 PM EDT
Nautical Twilight 6:04 AM EDT 7:33 PM EDT
Astronomical Twilight 5:32 AM EDT 8:05 PM EDT
Moon 3:57 PM EDT (10/7) 12:50 AM EDT (10/7)
Length of Visible Light 12h 24m
Length of Day
11h 29m
Waxing Gibbous, 69% of the Moon is Illuminated
Oct 7
Waxing Gibbous
Oct 13
Full
Oct 21
Last Quarter
Oct 27
New
Nov 4
First Quarter

Hourly Weather History & Observations

Time (EDT) Temp. Dew Point Humidity Pressure Visibility Wind Dir Wind Speed Gust Speed Precip Events Conditions
12:36 AM 60.1 °F 60.1 °F 100% 30.21 in 10.0 mi South 12.7 mph 20.7 mph N/A   Overcast
12:53 AM 60.1 °F 60.1 °F 100% 30.20 in 10.0 mi South 11.5 mph 17.3 mph N/A   Overcast
1:39 AM 60.1 °F 60.1 °F 100% 30.19 in 9.0 mi South 13.8 mph 21.9 mph N/A   Overcast
1:53 AM 60.1 °F 60.1 °F 100% 30.19 in 10.0 mi South 15.0 mph 19.6 mph N/A   Overcast
2:53 AM 60.1 °F 60.1 °F 100% 30.17 in 10.0 mi South 10.4 mph 19.6 mph N/A   Overcast
3:48 AM 59.0 °F 59.0 °F 100% 30.15 in 5.0 mi South 11.5 mph 18.4 mph 0.01 in Rain Light Rain
3:53 AM 59.0 °F 59.0 °F 100% 30.15 in 5.0 mi South 12.7 mph 18.4 mph 0.01 in Rain Light Rain
4:02 AM 59.0 °F 59.0 °F 100% 30.15 in 5.0 mi South 11.5 mph 18.4 mph 0.01 in Rain Light Rain
4:14 AM 60.1 °F 60.1 °F 100% 30.15 in 9.0 mi South 15.0 mph 21.9 mph 0.01 in Rain Light Rain
4:25 AM 60.1 °F 60.1 °F 100% 30.15 in 10.0 mi South 15.0 mph 23.0 mph 0.01 in Rain Light Rain
4:50 AM 60.8 °F 60.8 °F 100% 30.15 in 9.0 mi South 12.7 mph 21.9 mph 0.02 in Rain Light Rain
4:53 AM 60.1 °F 60.1 °F 100% 30.14 in 10.0 mi South 13.8 mph 21.9 mph 0.02 in Rain Light Rain
5:12 AM 60.1 °F 60.1 °F 100% 30.15 in 10.0 mi South 15.0 mph 26.5 mph 0.00 in   Overcast
5:28 AM 60.1 °F 60.1 °F 100% 30.15 in 9.0 mi South 15.0 mph 24.2 mph 0.00 in Rain Light Rain
5:53 AM 60.1 °F 60.1 °F 100% 30.14 in 10.0 mi South 13.8 mph 21.9 mph 0.00 in Rain Light Rain
6:04 AM 60.1 °F 60.1 °F 100% 30.15 in 10.0 mi South 12.7 mph 21.9 mph 0.00 in   Overcast
6:27 AM 60.1 °F 60.1 °F 100% 30.15 in 10.0 mi South 13.8 mph 21.9 mph 0.00 in   Overcast
6:39 AM 60.1 °F 60.1 °F 100% 30.14 in 10.0 mi South 15.0 mph 26.5 mph 0.00 in   Overcast
6:53 AM 60.1 °F 60.1 °F 100% 30.14 in 10.0 mi South 13.8 mph 20.7 mph 0.00 in   Overcast
7:34 AM 60.1 °F 60.1 °F 100% 30.14 in 10.0 mi South 15.0 mph 24.2 mph N/A   Overcast
7:39 AM 60.1 °F 59.0 °F 96% 30.14 in 10.0 mi South 17.3 mph 24.2 mph N/A   Overcast
7:53 AM 60.1 °F 60.1 °F 100% 30.14 in 10.0 mi South 15.0 mph 28.8 mph N/A   Overcast
8:53 AM 60.1 °F 59.0 °F 96% 30.15 in 10.0 mi SSW 15.0 mph 24.2 mph N/A   Overcast
9:44 AM 60.1 °F 60.1 °F 100% 30.15 in 10.0 mi South 15.0 mph 19.6 mph N/A   Overcast
9:53 AM 60.1 °F 59.0 °F 96% 30.14 in 10.0 mi South 12.7 mph - N/A   Overcast
10:25 AM 60.1 °F 60.1 °F 100% 30.15 in 10.0 mi SSW 10.4 mph - 0.00 in Rain Light Rain
10:53 AM 60.1 °F 60.1 °F 100% 30.14 in 10.0 mi SSW 9.2 mph 20.7 mph 0.00 in Rain Light Rain
11:53 AM 61.0 °F 60.1 °F 97% 30.13 in 8.0 mi SW 16.1 mph 21.9 mph 0.01 in Rain Light Rain
12:32 PM 61.0 °F 60.1 °F 97% 30.14 in 7.0 mi SSW 13.8 mph 21.9 mph 0.00 in Rain Light Rain
12:53 PM 61.0 °F 60.1 °F 97% 30.12 in 8.0 mi SSW 13.8 mph - 0.00 in Rain Light Rain
1:25 PM 61.0 °F 61.0 °F 100% 30.12 in 7.0 mi SSW 11.5 mph - 0.01 in Rain Light Rain
1:53 PM 61.0 °F 60.1 °F 97% 30.11 in 10.0 mi SSW 15.0 mph - 0.02 in Rain Light Rain
2:16 PM 61.0 °F 60.1 °F 97% 30.11 in 10.0 mi SW 12.7 mph 20.7 mph 0.00 in Rain Light Rain
2:39 PM 61.0 °F 60.1 °F 97% 30.11 in 10.0 mi SW 10.4 mph - 0.01 in Rain Light Rain
2:53 PM 61.0 °F 61.0 °F 100% 30.10 in 3.0 mi SW 11.5 mph - 0.03 in Rain Light Rain
3:12 PM 61.0 °F 61.0 °F 100% 30.11 in 3.0 mi SW 9.2 mph - 0.02 in Rain Rain
3:26 PM 61.0 °F 61.0 °F 100% 30.11 in 6.0 mi SW 9.2 mph - 0.03 in Rain Light Rain
3:53 PM 59.0 °F 59.0 °F 100% 30.11 in 5.0 mi NW 10.4 mph - 0.04 in Rain Light Rain
4:10 PM 57.0 °F 57.0 °F 100% 30.12 in 4.0 mi NW 12.7 mph - 0.01 in Rain Light Rain
4:22 PM 55.9 °F 55.9 °F 100% 30.12 in 5.0 mi NW 9.2 mph - 0.01 in Rain Light Rain
4:53 PM 55.0 °F 55.0 °F 100% 30.12 in 10.0 mi NW 12.7 mph - 0.03 in Rain Light Rain
5:13 PM 55.0 °F 55.0 °F 100% 30.13 in 4.0 mi WNW 9.2 mph - 0.00 in Rain Light Rain
5:20 PM 54.0 °F 54.0 °F 100% 30.13 in 5.0 mi NW 13.8 mph - 0.00 in Rain Light Rain
5:53 PM 54.0 °F 54.0 °F 100% 30.14 in 5.0 mi NW 12.7 mph - 0.01 in Rain Light Rain
6:02 PM 54.0 °F 54.0 °F 100% 30.14 in 4.0 mi NW 11.5 mph - 0.00 in Rain Light Rain
6:37 PM 54.0 °F 54.0 °F 100% 30.15 in 8.0 mi NW 11.5 mph - 0.01 in Rain Light Rain
6:53 PM 54.0 °F 54.0 °F 100% 30.15 in 6.0 mi NW 6.9 mph - 0.04 in Rain Light Rain
7:53 PM 53.1 °F 53.1 °F 100% 30.16 in 10.0 mi NNW 4.6 mph - 0.08 in Rain Light Rain
8:53 PM 53.1 °F 53.1 °F 100% 30.18 in 10.0 mi NNW 5.8 mph - 0.02 in Rain Light Rain
9:16 PM 53.1 °F 53.1 °F 100% 30.20 in 10.0 mi West 4.6 mph - 0.01 in Rain Light Rain
9:35 PM 53.1 °F 53.1 °F 100% 30.20 in 10.0 mi WNW 6.9 mph - 0.02 in Rain Light Rain
9:42 PM 53.1 °F 53.1 °F 100% 30.20 in 9.0 mi NW 6.9 mph - 0.02 in Rain Light Rain
9:51 PM 53.6 °F 53.6 °F 100% 30.20 in 10.0 mi NW 4.6 mph - 0.02 in Rain Light Rain
9:53 PM 53.1 °F 53.1 °F 100% 30.20 in 10.0 mi WNW 6.9 mph - 0.02 in Rain Light Rain
10:07 PM 53.1 °F 53.1 °F 100% 30.20 in 10.0 mi NW 9.2 mph - 0.01 in Rain Light Rain
10:14 PM 53.1 °F 53.1 °F 100% 30.20 in 10.0 mi NW 9.2 mph - 0.01 in Rain Light Rain
10:53 PM 53.1 °F 53.1 °F 100% 30.20 in 6.0 mi NNW 9.2 mph - 0.09 in Rain Light Rain
11:53 PM 51.1 °F 48.0 °F 89% 30.22 in 10.0 mi NW 9.2 mph - 0.04 in Rain Light Rain